Home   Weather   Fairfield Homes   Past weeks
Flag for USA

Past Weather in Fairfield Homes, Maryland, USA — Yesterday and Last 2 Weeks

Now
46 °F

Scattered clouds.


Feels Like: 39 °F
Forecast: 47 / 36 °F
Wind: 17 mph from Northwest

Location: Baltimore-Washington International Airport

Current Time: Dec 5, 2019 at 3:03:41 pm

Latest Report: Dec 5, 2019 at 1:56 pm


Visibility: 10 mi

Pressure: 29.95 "Hg

Humidity: 38%

Dew Point: 22 °F

Location of Fairfield HomesLocation

Past Weather in Fairfield Homes — Graph

°F

Fairfield Homes Temperature Yesterday

Maximum temperature yesterday: 47 °F (at 1:54 pm)
Minimum temperature yesterday: 35 °F (at 6:54 am)
Average temperature yesterday: 41 °F

High & Low Weather Summary for the Past Weeks

 TemperatureHumidityPressure
High63 °F (Nov 26, 1:54 pm)93% (Nov 23, 11:32 pm)30.28 "Hg (Nov 23, 11:32 pm)
Low29 °F (Nov 23, 5:54 am)29% (Nov 30, 5:54 pm)29.42 "Hg (Nov 24, 4:54 am)
Average44 °F65%29.86 "Hg
* Reported Nov 20 1:54 pm — Dec 5 1:56 pm, Fairfield Homes. Weather by CustomWeather, © 2019

Note: Actual official high and low records may vary slightly from our data, if they occured in-between our weather recording intervals... More about our weather records

Fairfield Homes Weather History for the Previous 24 Hours

Scroll right to see more
 ConditionsComfort  
Time TempWeatherWind HumidityBarometerVisibility
1:56 pm
Thu, Dec 5
46 °FScattered clouds.17 mph38%29.95 "Hg10 mi
12:54 pm47 °FPartly sunny.18 mph39%29.93 "Hg10 mi
11:58 am44 °FPartly sunny.15 mph43%29.94 "Hg10 mi
10:54 am45 °FScattered clouds.21 mph40%29.93 "Hg10 mi
9:54 am42 °FScattered clouds.18 mph49%29.92 "Hg10 mi
8:54 am42 °FScattered clouds.14 mph51%29.89 "Hg10 mi
7:54 am40 °FScattered clouds.10 mph55%29.88 "Hg10 mi
6:54 am40 °FPassing clouds.12 mph55%29.83 "Hg10 mi
5:54 am41 °FPartly cloudy.14 mph55%29.78 "Hg10 mi
4:54 am41 °FPartly cloudy.15 mph55%29.74 "Hg10 mi
3:54 am42 °FPartly cloudy.13 mph53%29.71 "Hg10 mi
2:54 am40 °FPassing clouds.5 mph65%29.68 "Hg10 mi
1:54 am42 °FOvercast.10 mph57%29.65 "Hg10 mi
12:54 am41 °FPartly cloudy.9 mph60%29.62 "Hg10 mi
11:54 pm
Wed, Dec 4
40 °FPartly cloudy.9 mph63%29.62 "Hg10 mi
10:54 pm39 °FPartly cloudy.6 mph67%29.62 "Hg10 mi
9:54 pm40 °FPassing clouds.5 mph65%29.62 "Hg10 mi
8:54 pm40 °FPassing clouds.6 mph63%29.60 "Hg10 mi
7:54 pm44 °FPassing clouds.10 mph53%29.60 "Hg10 mi
6:54 pm46 °FPassing clouds.12 mph50%29.59 "Hg10 mi
5:54 pm45 °FPartly cloudy.5 mph58%29.57 "Hg10 mi
4:54 pm45 °FPassing clouds.3 mph56%29.54 "Hg10 mi
3:54 pm46 °FBroken clouds.No wind54%29.52 "Hg10 mi
Weather by CustomWeather, © 2019

See weather overview

Advertising